Regional Weather Roundup
Issued by NWS

Home | Current Version | Previous Version | Graphics & Text | Print | Product List | Glossary On
Versions: 1 2 3 4 5 6 7 8 9 10 11 12 13 14 15 16 17 18 19 20 21 22 23 24 25 26 27 28 29 30 31 32 33 34 35 36 37 38 39 40 41 42 43 44 45 46 47 48 49 50
581
ASUS44 KJAN 151003
RWRMS

MISSISSIPPI HOURLY WEATHER ROUNDUP
NATIONAL WEATHER SERVICE JACKSON MS
500 AM CDT TUE APR 15 2014

NOTE: "FAIR: INDICATES FEW OR NO CLOUDS BELOW 12,000 FEET WITH NO
SIGNIFICANT WEATHER AND/OR OBSTRUCTIONS TO VISIBILITY.

MSZ001>002-007>008-010>013-018>021-025>028-034>036-151100-
NORTHWEST MISSISSIPPI

CITY           SKY/WX    TMP DP  RH WIND       PRES   REMARKS
CLARKSDALE       N/A     41  30  65 N15G28    30.13R
CLEVELAND      CLOUDY    42  34  74 N16       30.12R
GREENWOOD      CLOUDY    41  34  76 N12G21    30.09R
GREENVILLE     CLOUDY    43  33  68 N15       30.12R
GRENADA        CLOUDY    39  34  81 N9        30.08S WCI  33
OLIVE BRANCH   MOCLDY    36  30  80 N18       30.10R WCI  25
OXFORD         CLOUDY    37  30  75 N13G21    30.08S WCI  29
TUNICA         SUNNY     37  32  81 N16G23    30.14R WCI  28
$$

MSZ003>006-009-014>017-022>024-029>033-037>039-151100-
NORTHEAST MISSISSIPPI

CITY           SKY/WX    TMP DP  RH WIND       PRES   REMARKS
BELMONT        CLOUDY    38  34  84 N12G21    29.99R WCI  31
COLUMBUS AFB   CLOUDY    41  38  87 NW21G29   30.00R
CORINTH        LGT RAIN  37  32  81 NW13G22   30.03R WCI  29
GOLDN TRIANGLE CLOUDY    39  34  81 N18G26    30.02R WCI  30
STARKVILLE     CLOUDY    41  37  87 NW9G16    30.01R
TUPELO         MOCLDY    40  33  76 N13G24    30.02R WCI  32
$$

MSZ040-058-151100-
CENTRAL MISSISSIPPI

CITY           SKY/WX    TMP DP  RH WIND       PRES   REMARKS
JACKSON INTL   CLOUDY    43  37  79 NW17G29   30.04R
JACKSON HAWKNS CLOUDY    42  36  79 N13G20    30.05R
MERIDIAN KEY   LGT RAIN  44  42  93 NW17G26   29.95R
MERIDIAN NAS   LGT RAIN  46  42  86 NW17G25   29.95R
RAYMOND        PTSUNNY   41  37  87 NW12G23   30.06S
VICKSBURG      CLOUDY    45  35  68 N14G24    30.11R
$$

MSZ059>079-151100-
SOUTH MISSISSIPPI

CITY           SKY/WX    TMP DP  RH WIND       PRES   REMARKS
BROOKHAVEN     CLOUDY    43  41  93 NW13G20   30.04R
COLUMBIA       CLOUDY    45  43  93 MISG      29.99R
HATTIESBURG    CLOUDY    47  44  90 NW13G22   29.97R
MCCOMB         CLOUDY    44  40  85 NW14G29   30.02R
NATCHEZ        CLOUDY    43  34  70 N17G26    30.09R
PINE BELT      CLOUDY    45  39  81 NW12G23   29.96S
$$

MSZ080>082-151100-
COASTAL MISSISSIPPI

CITY           SKY/WX    TMP DP  RH WIND       PRES   REMARKS
BILOXI         CLOUDY    50  48  92 N18G30    29.91R
PASCAGOULA     CLOUDY    51  48  89 N16G29    29.89R
GULFPORT       LGT RAIN  52  47  83 N20G28    29.92R
$$



USA.gov is the U.S. government's official web portal to all federal, state and local government web resources and services.